sat.trackr.live / text

‹ back to catalog

STARLINK-36305

NORAD 68189 · 2026-050Y

PAYLOAD ACTIVE UNKNOWN

§ Identity

Operator
Country
US
Launch date
2026-03-14
Launch site
AFETR
Launch vehicle
Mass (kg)
RCS (m²)

Purposes: comms

External: N2YO · Heavens-Above · Gunter

§ Orbital elements

Epoch: 2026-09-19T22:00:17.667360Z

Period
93.85 min
Inclination
53.1581°
Eccentricity
0.0001046
Mean motion
15.34402052 rev/d
Perigee alt
462.0 km
Apogee alt
463.4 km
Semi-major
6,840.8 km
B*
4.5673e-4
RAAN
80.7895°
Arg perigee
94.5023°
Mean anomaly
265.6099°
Rev number
3,037

§ Raw data

STARLINK-363051 68189U 26050Y   26262.91687115  .00015087  00000+0  45673-3 0  99992 68189  53.1581  80.7895 0001046  94.5023 265.6099 15.34402052 30374

JSON: /api/v1/satellites/68189 · /tle

For live sub-satellite position, see the globe view (requires WebGL).

§ Visibility from observer

Set your observer location to see the next 7 days of passes ≥ 10°. The values pass through the URL so the page stays shareable.

No JS? Fill the form by hand. The geolocation button needs JavaScript.